TimeCST,TemperatureF,Dew PointF,Humidity,Sea Level PressureIn,VisibilityMPH,Wind Direction,Wind SpeedMPH,Gust SpeedMPH,PrecipitationIn,Events,Conditions,WindDirDegrees,DateUTC
12:15 AM,14.0,10.2,85,30.25,7.0,West,5.8,-,N/A,,Clear,260,2012-12-30 06:15:00
12:35 AM,13.5,9.7,85,30.24,7.0,WSW,3.5,-,N/A,,Clear,250,2012-12-30 06:35:00
12:55 AM,13.5,9.5,84,30.24,7.0,WSW,4.6,-,N/A,,Clear,250,2012-12-30 06:55:00
1:15 AM,13.5,9.5,84,30.24,7.0,West,4.6,-,N/A,,Clear,270,2012-12-30 07:15:00
1:35 AM,13.3,9.5,85,30.25,7.0,WSW,4.6,-,N/A,,Clear,250,2012-12-30 07:35:00
1:55 AM,12.7,9.1,86,30.25,7.0,WSW,3.5,-,N/A,,Clear,250,2012-12-30 07:55:00
2:15 AM,13.3,9.5,85,30.26,7.0,Calm,Calm,-,N/A,,Clear,0,2012-12-30 08:15:00
2:35 AM,13.1,9.3,85,30.26,7.0,Calm,Calm,-,N/A,,Clear,0,2012-12-30 08:35:00
2:55 AM,12.2,8.8,86,30.28,7.0,SW,5.8,-,N/A,,Clear,230,2012-12-30 08:55:00
3:15 AM,12.4,9.3,88,30.28,7.0,WSW,3.5,-,N/A,,Clear,240,2012-12-30 09:15:00
3:35 AM,12.6,9.5,88,30.29,7.0,WSW,3.5,-,N/A,,Clear,240,2012-12-30 09:35:00
3:55 AM,12.6,9.5,88,30.29,7.0,WSW,4.6,-,N/A,,Clear,250,2012-12-30 09:55:00
4:15 AM,12.6,9.5,88,30.29,7.0,WSW,4.6,-,N/A,,Clear,240,2012-12-30 10:15:00
4:35 AM,11.8,8.8,88,30.28,7.0,SW,4.6,-,N/A,,Clear,220,2012-12-30 10:35:00
4:55 AM,11.3,8.6,89,30.28,5.0,SW,4.6,-,N/A,,Clear,220,2012-12-30 10:55:00
5:15 AM,11.3,8.6,89,30.28,5.0,SW,4.6,-,N/A,,Clear,220,2012-12-30 11:15:00
5:35 AM,7.9,5.5,90,30.28,5.0,SSE,3.5,-,N/A,,Clear,160,2012-12-30 11:35:00
5:55 AM,8.6,6.6,92,30.29,5.0,SW,4.6,-,N/A,,Clear,230,2012-12-30 11:55:00
6:15 AM,11.3,8.8,90,30.29,5.0,SW,4.6,-,N/A,,Clear,230,2012-12-30 12:15:00
6:55 AM,11.5,8.6,88,30.32,5.0,WSW,6.9,-,N/A,,Clear,240,2012-12-30 12:55:00
7:15 AM,11.3,8.2,87,30.31,5.0,Calm,Calm,-,N/A,,Clear,0,2012-12-30 13:15:00
7:35 AM,10.0,7.5,90,30.30,4.0,SW,3.5,-,N/A,,Clear,220,2012-12-30 13:35:00
7:55 AM,10.2,7.3,88,30.32,4.0,WSW,3.5,-,N/A,,Clear,250,2012-12-30 13:55:00
8:15 AM,12.2,9.0,87,30.32,5.0,West,5.8,-,N/A,,Clear,260,2012-12-30 14:15:00
8:35 AM,12.2,8.6,85,30.31,5.0,Calm,Calm,-,N/A,,Clear,0,2012-12-30 14:35:00
8:55 AM,13.1,9.3,85,30.32,5.0,Calm,Calm,-,N/A,,Clear,0,2012-12-30 14:55:00
9:15 AM,13.3,9.0,83,30.32,5.0,SSE,3.5,-,N/A,,Clear,150,2012-12-30 15:15:00
9:35 AM,13.8,9.5,83,30.32,5.0,Calm,Calm,-,N/A,,Haze,0,2012-12-30 15:35:00
9:55 AM,14.7,10.2,82,30.32,5.0,SE,3.5,-,N/A,,Haze,140,2012-12-30 15:55:00
10:15 AM,16.3,11.5,81,30.32,5.0,South,4.6,-,N/A,,Haze,190,2012-12-30 16:15:00
10:35 AM,18.0,12.6,79,30.32,7.0,South,3.5,-,N/A,,Clear,190,2012-12-30 16:35:00
10:55 AM,19.0,13.1,78,30.31,7.0,South,3.5,-,N/A,,Clear,170,2012-12-30 16:55:00
11:15 AM,19.9,13.6,77,30.31,7.0,South,5.8,-,N/A,,Clear,190,2012-12-30 17:15:00
11:35 AM,21.2,14.0,74,30.31,7.0,SW,5.8,-,N/A,,Clear,230,2012-12-30 17:35:00
11:55 AM,21.9,14.9,74,30.30,7.0,SSW,4.6,-,N/A,,Clear,210,2012-12-30 17:55:00
12:15 PM,22.6,15.1,73,30.28,10.0,South,5.8,-,N/A,,Clear,180,2012-12-30 18:15:00
12:35 PM,23.9,16.0,72,30.27,7.0,SSE,4.6,-,N/A,,Clear,160,2012-12-30 18:35:00
12:55 PM,23.5,16.2,73,30.25,10.0,South,3.5,-,N/A,,Clear,170,2012-12-30 18:55:00
1:15 PM,23.9,17.6,77,30.24,7.0,SSE,5.8,-,N/A,,Clear,150,2012-12-30 19:15:00
1:35 PM,24.8,18.3,76,30.22,7.0,SSE,6.9,-,N/A,,Clear,150,2012-12-30 19:35:00
1:55 PM,25.5,18.5,75,30.21,7.0,SSE,8.1,-,N/A,,Clear,150,2012-12-30 19:55:00
2:15 PM,26.2,19.2,75,30.20,7.0,SSE,6.9,-,N/A,,Clear,160,2012-12-30 20:15:00
2:35 PM,26.6,19.6,75,30.20,7.0,SSE,8.1,-,N/A,,Clear,160,2012-12-30 20:35:00
2:55 PM,27.1,19.4,73,30.19,7.0,SSE,6.9,-,N/A,,Clear,150,2012-12-30 20:55:00
3:15 PM,26.6,19.8,75,30.19,7.0,SSE,9.2,-,N/A,,Clear,150,2012-12-30 21:15:00
3:35 PM,26.4,20.5,78,30.19,7.0,SE,6.9,-,N/A,,Clear,140,2012-12-30 21:35:00
3:55 PM,26.2,20.8,80,30.18,10.0,SSE,8.1,-,N/A,,Clear,150,2012-12-30 21:55:00
4:15 PM,25.7,20.7,81,30.18,7.0,SSE,6.9,-,N/A,,Clear,150,2012-12-30 22:15:00
4:35 PM,25.3,20.3,81,30.17,10.0,SSE,8.1,-,N/A,,Clear,150,2012-12-30 22:35:00
4:55 PM,25.0,20.3,82,30.16,10.0,SSE,5.8,-,N/A,,Clear,160,2012-12-30 22:55:00
5:15 PM,25.2,20.8,84,30.16,10.0,South,4.6,-,N/A,,Clear,170,2012-12-30 23:15:00
5:35 PM,26.1,21.9,84,30.15,10.0,SSE,11.5,-,N/A,,Clear,160,2012-12-30 23:35:00
5:55 PM,27.0,22.6,84,30.13,10.0,SSE,12.7,-,N/A,,Clear,160,2012-12-30 23:55:00
6:15 PM,27.1,22.8,84,30.12,10.0,SSE,12.7,-,N/A,,Clear,160,2012-12-31 00:15:00
6:35 PM,27.1,22.8,84,30.11,10.0,SSE,10.4,-,N/A,,Clear,160,2012-12-31 00:35:00
6:55 PM,26.8,22.6,84,30.10,10.0,SSE,10.4,-,N/A,,Clear,150,2012-12-31 00:55:00
7:15 PM,26.8,22.3,83,30.10,10.0,South,9.2,-,N/A,,Clear,170,2012-12-31 01:15:00
7:35 PM,28.8,23.4,80,30.10,10.0,South,8.1,-,N/A,,Clear,190,2012-12-31 01:35:00
7:55 PM,30.6,24.3,77,30.09,10.0,South,11.5,-,N/A,,Clear,170,2012-12-31 01:55:00
8:15 PM,31.6,25.0,76,30.09,10.0,South,11.5,-,N/A,,Clear,170,2012-12-31 02:15:00
8:35 PM,32.0,25.3,76,30.07,10.0,South,11.5,-,N/A,,Clear,170,2012-12-31 02:35:00
8:55 PM,32.0,25.5,77,30.07,10.0,South,11.5,-,N/A,,Clear,170,2012-12-31 02:55:00
9:15 PM,32.0,25.2,76,30.06,10.0,South,11.5,-,N/A,,Clear,170,2012-12-31 03:15:00
9:35 PM,32.9,24.8,72,30.05,10.0,South,11.5,-,N/A,,Clear,180,2012-12-31 03:35:00
9:55 PM,32.9,25.0,73,30.04,10.0,South,11.5,-,N/A,,Clear,170,2012-12-31 03:55:00
10:15 PM,32.5,24.8,73,30.04,10.0,South,10.4,-,N/A,,Clear,180,2012-12-31 04:15:00
10:35 PM,32.0,24.8,75,30.04,10.0,South,11.5,-,N/A,,Clear,170,2012-12-31 04:35:00
10:55 PM,32.0,24.8,75,30.03,10.0,South,11.5,-,N/A,,Clear,170,2012-12-31 04:55:00
11:15 PM,32.0,24.8,75,30.03,10.0,South,10.4,-,N/A,,Clear,180,2012-12-31 05:15:00
11:35 PM,32.7,24.6,72,30.02,10.0,South,9.2,-,N/A,,Clear,180,2012-12-31 05:35:00
11:55 PM,34.0,24.8,69,30.02,10.0,South,11.5,-,N/A,,Clear,180,2012-12-31 05:55:00